[Iaude] MPEC D10: 2024 CE7 [a=2.24,e=0.68,i=6.6,H=24.6]
    mpec at cfa.harvard.edu 
    mpec at cfa.harvard.edu
       
    Fri Feb 16 08:58:26 EST 2024
    
    
  
M.P.E.C. 2024-D10                             Issued 2024 February 16, 13:56 UT
     The Minor Planet Electronic Circulars contain information on unusual
         minor planets, routine data on comets and natural satellites,
         and occasional editorial announcements.  They are published
    on behalf of Division F of the International Astronomical Union by the
          Minor Planet Center, Smithsonian Astrophysical Observatory,
                          Cambridge, MA 02138, U.S.A.
			  
             Prepared using the Tamkin Foundation Computer Network
                              MPC at CFA.HARVARD.EDU
            URL https://www.minorplanetcenter.net/    ISSN 1523-6714
                                    2024 CE7                                    
Observations:
     K24C07E* C2024 02 14.46461210 51 51.183+05 38 50.11         21.88wXED010F51
     K24C07E  C2024 02 14.47729910 51 53.417+05 39 02.30         22.16wXED010F51
     K24C07E  C2024 02 14.50438210 51 58.249+05 39 29.00         22.04wXED010F51
     K24C07E  C2024 02 14.64345410 52 23.636+05 41 43.36         21.19GVED010F51
     K24C07E  C2024 02 14.64410210 52 23.803+05 41 44.24         21.75GVED010F51
     K24C07E  C2024 02 15.29385810 54 44.992+05 52 55.45         20.9 GVED010H01
     K24C07E  C2024 02 15.30418110 54 47.080+05 53 06.94         21.2 GVED010H01
     K24C07E  C2024 02 15.30724010 54 47.694+05 53 10.28         21.2 GVED010H01
     K24C07E  C2024 02 15.31423110 54 49.112+05 53 18.11         21.3 GVED010H01
     K24C07E KC2024 02 15.41237 10 55 09.31 +05 55 08.9          21.1 RVED010691
     K24C07E KC2024 02 15.45189 10 55 17.48 +05 55 53.7          21.4 RVED010691
     K24C07E KC2024 02 15.49144 10 55 25.79 +05 56 37.3          21.3 RVED010691
     K24C07E KC2024 02 16.40527 10 59 08.56 +06 15 16.6          21.2 RVED010691
     K24C07E KC2024 02 16.41452 10 59 10.76 +06 15 28.5          21.8 RVED010691
Observer details:
691 Steward Observatory, Kitt Peak-Spacewatch.  Observer J. V. Scotti.  0.9-m
    f/3 reflector + CCD.
F51 Pan-STARRS 1, Haleakala.  Observers J. Herman, T. Lowe, P. Minguez, A.
    Schultz, I. Smith.  Measurers K. Chambers, T. de Boer, J. Fairlamb, H.
    Gao, M. Huber, C.-C. Lin, E. Magnier, Y. Ramanjooloo, R. Wainscoat, R.
    Weryk.  1.8-m Ritchey-Chretien + CCD.
H01 Magdalena Ridge Observatory, Socorro.  Observers W. H. Ryan, E. V. Ryan.
    Measurer W. H. Ryan.  2.4-m f/8.9 Ritchey-Chretien + CCD.
Orbital elements:
2024 CE7                                                 Earth MOID = 0.0238 AU
Epoch 2024 Mar. 31.0 TT = JDT 2460400.5                 MPC                     
M 356.35231              (2000.0)            P               Q                  
n   0.29433956     Peri.   84.50513     -0.58846326     +0.80638631             
a   2.2382244      Node   149.20785     -0.77980743     -0.54686687             
e   0.6820462      Incl.    6.59047     -0.21356818     -0.22511718             
P   3.35           H   24.64          G   0.15           U   9                  
Residuals in seconds of arc
240214 F51  0.1+  0.1+    240215 H01  0.0   0.0     240215 691  0.5+  0.6+
240214 F51  0.1-  0.0     240215 H01  0.0   0.0     240215 691  0.5+  0.2+
240214 F51  0.3+  0.3+    240215 H01  0.1-  0.1-    240216 691  0.1-  0.1+
240214 F51  0.6-  0.3-    240215 H01  0.0   0.0     240216 691  0.1-  0.0
240214 F51  0.1+  0.0     240215 691  0.4+  0.2-
Ephemeris:
2024 CE7                 a,e,i = 2.24, 0.68, 7                   q = 0.7117
Date    TT    R. A. (2000) Decl.     Delta      r    Elong.  Phase     V
2024 01 17    10 12 23.1 +04 32 28   0.5408  1.4495   142.2    24.6    25.3
...
2024 02 01    10 26 54.4 +04 09 12   0.3319  1.2915   153.9    19.6    23.8
...
2024 02 09    10 38 24.0 +04 38 50   0.2311  1.2059   159.7    16.5    22.8
...
2024 02 15    10 53 40.1 +05 48 04   0.1601  1.1416   162.9    14.7    21.8
2024 02 16    10 57 27.5 +06 07 05   0.1486  1.1309   163.2    14.6    21.6
2024 02 17    11 01 50.3 +06 29 25   0.1373  1.1202   163.4    14.6    21.4
...
2024 02 23    11 55 20.1 +10 59 09   0.07277 1.0566   157.0    21.5    20.1
...
2024 03 02    18 43 57.4 +15 54 01   0.04356 0.9739    65.6   112.1    22.1
...
2024 03 17    21 35 16.1 +02 02 15   0.2010  0.8341    33.2   139.2    27.5
A. U. Tomatic                (C) Copyright 2024 MPC           M.P.E.C. 2024-D10
    
    
More information about the Iaude
mailing list